Bismarck, ND

9:08 PM CST on February 20, 2017 (GMT -0600)
Bismarck Municipal

Weather History for KBIS - October, 2010

Change the Weather History Date:

Monday, October 4, 2010

  Actual Average Record
Temperature  
Mean Temperature 60 °F 50 °F  
Max Temperature 75 °F 64 °F 95 °F (1963)
Min Temperature 45 °F 37 °F 17 °F (1988)
Degree Days  
Heating Degree Days 5 15  
Month to date heating degree days 50 57  
Since 1 July heating degree days 326 343  
Cooling Degree Days 0 0  
Month to date cooling degree days 0 0  
Year to date cooling degree days 504 519  
Growing Degree Days 9 (Base 50)    
Moisture  
Dew Point 44 °F    
Average Humidity 59    
Maximum Humidity 76    
Minimum Humidity 41    
Precipitation  
Precipitation 0.00 in 0.04 in 1.68 in (2013)
Month to date precipitation 0.00 0.18  
Year to date precipitation 20.35 15.58  
Snow  
Snow 0.00 in 0.00 in 5.80 in (1898)
Month to date snowfall 0.0 0.1  
Since 1 July snowfall T 0.3  
Since 1 September snowfall T 0.3  
Snow Depth 0.00 in    
Sea Level Pressure  
Sea Level Pressure 29.96 in    
Wind  
Wind Speed 11 mph (SE)    
Max Wind Speed 22 mph    
Max Gust Speed 26 mph    
Visibility 10 miles    
Events      
T = Trace of Precipitation, MM = Missing Value Source: NWS Daily Summary

Daily Weather History Graph

Daily Weather History Graph

Search for Another Location

Airport or City:

Trip Planner

Search our weather history database for the weather conditions in past years. The results will help you decide how hot, cold, wet, or windy it might be!

Date:

Astronomy

Oct. 04, 2010 Rise Set
Actual Time 7:45 AM CDT 7:16 PM CDT
Civil Twilight 7:15 AM CDT 7:46 PM CDT
Nautical Twilight 6:40 AM CDT 8:22 PM CDT
Astronomical Twilight 6:04 AM CDT 8:57 PM CDT
Moon 3:43 AM CDT (10/4) 5:26 PM CDT (10/4)
Length of Visible Light 12h 31m
Length of Day
11h 31m
Waning Crescent, 14% of the Moon is Illuminated
Oct 4
Waning Crescent
Oct 7
New
Oct 14
First Quarter
Oct 22
Full
Oct 30
Last Quarter

Hourly Weather History & Observations

Time (CDT) Temp. Windchill Dew Point Humidity Pressure Visibility Wind Dir Wind Speed Gust Speed Precip Events Conditions
12:52 AM 52.0 °F - 39.0 °F 61% 30.02 in 10.0 mi SE 8.1 mph 17.3 mph N/A   Clear
1:52 AM 52.0 °F - 39.0 °F 61% 30.01 in 10.0 mi East 6.9 mph - N/A   Clear
2:52 AM 51.1 °F - 39.0 °F 63% 30.01 in 10.0 mi SSE 11.5 mph - N/A   Clear
3:52 AM 48.9 °F - 39.0 °F 69% 30.00 in 10.0 mi SSE 11.5 mph - N/A   Clear
4:52 AM 48.0 °F - 39.0 °F 71% 29.99 in 10.0 mi ESE 10.4 mph - N/A   Clear
5:52 AM 48.9 °F - 39.0 °F 69% 30.00 in 10.0 mi SE 11.5 mph - N/A   Clear
6:52 AM 46.0 °F 42.5 °F 37.9 °F 73% 30.00 in 10.0 mi SE 6.9 mph - N/A   Clear
7:52 AM 45.0 °F 40.6 °F 37.9 °F 76% 30.01 in 10.0 mi SE 8.1 mph - N/A   Clear
8:52 AM 48.9 °F - 39.0 °F 69% 30.02 in 10.0 mi SSE 9.2 mph - N/A   Clear
9:52 AM 53.1 °F - 39.9 °F 61% 30.01 in 10.0 mi SSE 11.5 mph - N/A   Clear
10:52 AM 57.0 °F - 41.0 °F 55% 30.01 in 10.0 mi SE 12.7 mph - N/A   Clear
11:52 AM 61.0 °F - 43.0 °F 52% 29.99 in 10.0 mi SSE 15.0 mph - N/A   Clear
12:52 PM 63.0 °F - 44.1 °F 50% 29.98 in 10.0 mi SE 12.7 mph 20.7 mph N/A   Clear
1:52 PM 69.1 °F - 46.0 °F 44% 29.95 in 10.0 mi SSE 15.0 mph 20.7 mph N/A   Clear
2:52 PM 71.1 °F - 46.9 °F 42% 29.93 in 10.0 mi SSE 17.3 mph - N/A   Clear
3:52 PM 73.0 °F - 48.9 °F 42% 29.92 in 10.0 mi SSE 16.1 mph - N/A   Clear
4:52 PM 73.9 °F - 51.1 °F 45% 29.90 in 10.0 mi SE 15.0 mph - N/A   Clear
5:52 PM 73.0 °F - 51.1 °F 46% 29.89 in 10.0 mi SE 10.4 mph - N/A   Clear
6:52 PM 66.9 °F - 50.0 °F 54% 29.90 in 10.0 mi SSE 11.5 mph - N/A   Clear
7:52 PM 61.0 °F - 48.9 °F 64% 29.91 in 10.0 mi ESE 11.5 mph - N/A   Clear
8:52 PM 59.0 °F - 48.9 °F 69% 29.92 in 10.0 mi East 8.1 mph - N/A   Clear
9:52 PM 59.0 °F - 48.9 °F 69% 29.91 in 10.0 mi East 9.2 mph - N/A   Clear
10:52 PM 60.1 °F - 48.0 °F 64% 29.89 in 10.0 mi ESE 6.9 mph - N/A   Clear
11:52 PM 60.1 °F - 48.0 °F 64% 29.88 in 10.0 mi SE 8.1 mph - N/A   Clear